Location: Tr�vern
(48.0333°N, 4.6000°W)
Time: 08:39:06
(UTC+00:00)

Gbstr 26 Del rocket - Pass Details

Date: 14 July 2020
Orbit: 492 x 1264 km, 51.8° (Epoch: 05 August)

Event Time Altitude Azimuth Distance (km) Brightness Sun altitude
Rises 03:22:31 0° 292° (WNW) 2,720 6.2 -9.7°
Reaches altitude 10° 03:24:38 10° 286° (WNW) 1,894 5.3 -9.5°
Maximum altitude 03:28:44 46° 214° (SSW) 877 3.4 -9.0°
Drops below altitude 10° 03:33:40 10° 142° (SE) 2,278 5.9 -8.5°
Sets 03:36:26 0° 136° (SE) 3,341 6.8 -8.2°
